TimeCST,TemperatureF,Dew PointF,Humidity,Sea Level PressureIn,VisibilityMPH,Wind Direction,Wind SpeedMPH,Gust SpeedMPH,PrecipitationIn,Events,Conditions,WindDirDegrees,DateUTC
12:11 AM,12.2,5.0,73,29.80,10.0,WNW,31.1,43.7,0.00,,Mostly Cloudy,290,2013-02-19 06:11:00
12:52 AM,12.9,5.0,71,29.85,10.0,WNW,28.8,36.8,0.00,,Overcast,300,2013-02-19 06:52:00
1:44 AM,12.2,5.0,73,29.84,7.0,WNW,28.8,39.1,0.00,Snow,Light Snow,290,2013-02-19 07:44:00
1:52 AM,10.9,3.9,73,29.87,8.0,WNW,29.9,38.0,0.00,Snow,Light Snow,300,2013-02-19 07:52:00
2:00 AM,10.4,3.2,73,29.84,9.0,WNW,29.9,41.4,0.00,Snow,Light Snow,300,2013-02-19 08:00:00
2:10 AM,10.4,3.2,73,29.85,8.0,WNW,27.6,38.0,0.00,Snow,Light Snow,300,2013-02-19 08:10:00
2:52 AM,10.0,3.0,73,29.89,7.0,WNW,28.8,39.1,0.00,Snow,Light Snow,300,2013-02-19 08:52:00
3:47 AM,8.6,1.4,73,29.87,10.0,WNW,32.2,41.4,0.00,,Mostly Cloudy,300,2013-02-19 09:47:00
3:52 AM,8.1,-0.0,70,29.91,10.0,WNW,28.8,41.4,0.00,,Mostly Cloudy,300,2013-02-19 09:52:00
4:52 AM,7.0,-0.0,73,29.94,10.0,WNW,33.4,40.3,0.00,,Mostly Cloudy,300,2013-02-19 10:52:00
5:52 AM,5.0,-0.9,76,29.98,10.0,WNW,25.3,38.0,N/A,,Mostly Cloudy,300,2013-02-19 11:52:00
7:52 AM,3.9,-2.9,73,30.04,9.0,NW,31.1,39.1,N/A,,Mostly Cloudy,310,2013-02-19 13:52:00
8:52 AM,5.0,-2.9,70,30.07,8.0,NW,29.9,-,N/A,,Overcast,310,2013-02-19 14:52:00
9:52 AM,8.1,-0.9,67,30.09,10.0,NW,31.1,35.7,N/A,,Mostly Cloudy,310,2013-02-19 15:52:00
10:52 AM,12.0,1.0,61,30.11,10.0,WNW,26.5,38.0,N/A,,Mostly Cloudy,300,2013-02-19 16:52:00
12:12 PM,15.8,3.2,58,30.07,10.0,WNW,27.6,41.4,N/A,,Partly Cloudy,300,2013-02-19 18:12:00
12:52 PM,17.1,3.9,56,30.12,10.0,WNW,28.8,39.1,N/A,,Partly Cloudy,290,2013-02-19 18:52:00
1:52 PM,19.0,5.0,54,30.12,10.0,WNW,26.5,39.1,N/A,,Clear,300,2013-02-19 19:52:00
2:52 PM,19.0,5.0,54,30.13,10.0,WNW,31.1,40.3,N/A,,Clear,300,2013-02-19 20:52:00
3:52 PM,19.0,5.0,54,30.17,10.0,WNW,27.6,39.1,N/A,,Clear,300,2013-02-19 21:52:00
4:52 PM,18.0,5.0,57,30.19,10.0,WNW,26.5,33.4,N/A,,Clear,300,2013-02-19 22:52:00
6:52 PM,15.1,5.0,64,30.24,10.0,NW,20.7,28.8,N/A,,Clear,310,2013-02-20 00:52:00
7:52 PM,12.9,3.9,67,30.25,10.0,NW,19.6,27.6,N/A,,Clear,310,2013-02-20 01:52:00
8:52 PM,10.0,1.0,67,30.29,10.0,NNW,20.7,26.5,N/A,,Clear,330,2013-02-20 02:52:00
9:52 PM,7.0,-0.9,70,30.31,10.0,NNW,19.6,-,N/A,,Partly Cloudy,340,2013-02-20 03:52:00
10:52 PM,5.0,-2.9,70,30.34,10.0,NNW,16.1,-,N/A,,Clear,340,2013-02-20 04:52:00
11:52 PM,3.0,-4.0,73,30.36,10.0,NNW,11.5,-,N/A,,Clear,330,2013-02-20 05:52:00